Hourly Weather Otryadnoe

Today, 1 August, Sunday

Time Temperature Precipitation Wind Pressure Humidity
00:00 +19°C° 0.4 mm 2 mps 740 mmHg 84%
01:00 +18°C° 0.4 mm 2 mps 740 mmHg 87%
02:00 +18°C° 0.4 mm 2 mps 740 mmHg 90%
03:00 +18°C° 0.1 mm 2 mps 740 mmHg 91%
04:00 +18°C° 0.1 mm 3 mps 740 mmHg 91%
05:00 +17°C° 0.1 mm 3 mps 739 mmHg 92%
06:00 +19°C° 0 mm 3 mps 740 mmHg 88%
07:00 +20°C° 0 mm 4 mps 740 mmHg 84%
08:00 +21°C° 0 mm 5 mps 740 mmHg 80%
09:00 +23°C° 0 mm 5 mps 740 mmHg 71%
10:00 +26°C° 0 mm 4 mps 740 mmHg 61%
11:00 +28°C° 0 mm 4 mps 740 mmHg 51%
12:00 +28°C° 0 mm 4 mps 740 mmHg 47%
13:00 +29°C° 0 mm 4 mps 740 mmHg 42%
14:00 +29°C° 0 mm 4 mps 740 mmHg 38%
15:00 +29°C° 0 mm 4 mps 740 mmHg 39%
16:00 +29°C° 0 mm 4 mps 740 mmHg 40%
17:00 +29°C° 0 mm 3 mps 740 mmHg 40%
18:00 +27°C° 0 mm 3 mps 740 mmHg 47%
19:00 +25°C° 0 mm 2 mps 740 mmHg 53%
20:00 +23°C° 0 mm 1 mps 740 mmHg 60%
21:00 +21°C° 0 mm 2 mps 740 mmHg 61%
22:00 +21°C° 0 mm 2 mps 740 mmHg 62%
23:00 +20°C° 0 mm 2 mps 740 mmHg 63%

Tomorrow, 2 August, Monday

Time Temperature Precipitation Wind Pressure Humidity
00:00 +19°C° 0.1 mm 2 mps 739 mmHg 69%
01:00 +19°C° 0.1 mm 2 mps 739 mmHg 74%
02:00 +18°C° 0.1 mm 2 mps 738 mmHg 79%
03:00 +18°C° 0.7 mm 3 mps 738 mmHg 83%
04:00 +18°C° 0.7 mm 3 mps 738 mmHg 88%
05:00 +18°C° 0.7 mm 3 mps 738 mmHg 92%
06:00 +19°C° 0.2 mm 3 mps 737 mmHg 91%
07:00 +20°C° 0.2 mm 3 mps 737 mmHg 89%
08:00 +21°C° 0.2 mm 3 mps 737 mmHg 88%
09:00 +22°C° 0.1 mm 4 mps 737 mmHg 80%
10:00 +25°C° 0.1 mm 4 mps 736 mmHg 72%
11:00 +27°C° 0.1 mm 5 mps 736 mmHg 63%
12:00 +26°C° 0.3 mm 5 mps 736 mmHg 66%
13:00 +26°C° 0.3 mm 5 mps 736 mmHg 68%
14:00 +26°C° 0.3 mm 5 mps 736 mmHg 70%
15:00 +23°C° 1.1 mm 5 mps 736 mmHg 77%
16:00 +21°C° 1.1 mm 6 mps 736 mmHg 83%
17:00 +20°C° 1.1 mm 6 mps 736 mmHg 90%
18:00 +19°C° 0 mm 6 mps 737 mmHg 91%
19:00 +16°C° 0 mm 5 mps 737 mmHg 91%
20:00 +15°C° 0 mm 5 mps 738 mmHg 92%
21:00 +15°C° 0 mm 4 mps 739 mmHg 93%
22:00 +15°C° 0 mm 4 mps 739 mmHg 93%
23:00 +14°C° 0 mm 3 mps 739 mmHg 94%

Day after tomorrow, 3 August, Tuesday

Time Temperature Precipitation Wind Pressure Humidity
00:00 +14°C° 0 mm 3 mps 740 mmHg 94%
01:00 +14°C° 0 mm 3 mps 740 mmHg 95%
02:00 +14°C° 0 mm 4 mps 740 mmHg 95%
03:00 +14°C° 0.1 mm 3 mps 740 mmHg 95%
04:00 +14°C° 0.1 mm 3 mps 741 mmHg 95%
05:00 +14°C° 0.1 mm 3 mps 741 mmHg 95%
06:00 +16°C° 0 mm 3 mps 741 mmHg 87%
07:00 +17°C° 0 mm 4 mps 742 mmHg 79%
08:00 +18°C° 0 mm 4 mps 742 mmHg 72%
09:00 +20°C° 0 mm 4 mps 742 mmHg 64%
10:00 +21°C° 0 mm 4 mps 743 mmHg 56%
11:00 +22°C° 0 mm 4 mps 743 mmHg 48%
12:00 +22°C° 0 mm 4 mps 743 mmHg 49%
13:00 +22°C° 0 mm 4 mps 743 mmHg 49%
14:00 +22°C° 0 mm 4 mps 743 mmHg 50%
15:00 +22°C° 0 mm 4 mps 743 mmHg 52%
16:00 +21°C° 0 mm 4 mps 743 mmHg 54%
17:00 +21°C° 0 mm 3 mps 743 mmHg 55%
18:00 +20°C° 0 mm 3 mps 743 mmHg 58%
19:00 +19°C° 0 mm 3 mps 743 mmHg 60%
20:00 +18°C° 0 mm 3 mps 744 mmHg 62%
21:00 +17°C° 0 mm 3 mps 744 mmHg 69%
22:00 +16°C° 0 mm 3 mps 744 mmHg 76%
23:00 +14°C° 0 mm 2 mps 745 mmHg 84%

4 August, Wednesday

Time Temperature Precipitation Wind Pressure Humidity
00:00 +14°C° 0 mm 2 mps 745 mmHg 85%
01:00 +14°C° 0 mm 2 mps 745 mmHg 87%
02:00 +13°C° 0 mm 2 mps 745 mmHg 89%
03:00 +13°C° 0 mm 2 mps 745 mmHg 90%
04:00 +13°C° 0 mm 2 mps 745 mmHg 90%
05:00 +13°C° 0 mm 2 mps 746 mmHg 91%
06:00 +15°C° 0 mm 2 mps 746 mmHg 84%
07:00 +17°C° 0 mm 2 mps 746 mmHg 77%
08:00 +18°C° 0 mm 2 mps 746 mmHg 70%
09:00 +20°C° 0 mm 2 mps 746 mmHg 65%
10:00 +21°C° 0 mm 2 mps 746 mmHg 59%
11:00 +24°C° 0 mm 3 mps 746 mmHg 53%
12:00 +25°C° 0 mm 3 mps 746 mmHg 49%
13:00 +25°C° 0 mm 3 mps 746 mmHg 45%
14:00 +26°C° 0 mm 3 mps 746 mmHg 41%
15:00 +26°C° 0 mm 2 mps 746 mmHg 43%
16:00 +25°C° 0 mm 2 mps 746 mmHg 45%
17:00 +25°C° 0 mm 1 mps 746 mmHg 47%
18:00 +24°C° 0 mm 1 mps 746 mmHg 51%
19:00 +22°C° 0 mm 1 mps 746 mmHg 56%
20:00 +20°C° 0 mm 2 mps 746 mmHg 60%
21:00 +20°C° 0 mm 1 mps 746 mmHg 63%
22:00 +19°C° 0 mm 1 mps 746 mmHg 66%
23:00 +18°C° 0 mm 1 mps 746 mmHg 70%

5 August, Thursday

Time Temperature Precipitation Wind Pressure Humidity
00:00 +18°C° 0 mm 1 mps 746 mmHg 68%
01:00 +17°C° 0 mm 2 mps 746 mmHg 66%
02:00 +17°C° 0 mm 2 mps 746 mmHg 65%
03:00 +17°C° 0 mm 2 mps 746 mmHg 64%
04:00 +17°C° 0 mm 2 mps 745 mmHg 63%
05:00 +17°C° 0 mm 2 mps 745 mmHg 63%
06:00 +17°C° 0 mm 2 mps 745 mmHg 65%
07:00 +18°C° 0 mm 2 mps 745 mmHg 68%
08:00 +18°C° 0 mm 2 mps 745 mmHg 70%
09:00 +19°C° 0.1 mm 2 mps 745 mmHg 70%
10:00 +20°C° 0.1 mm 2 mps 745 mmHg 70%
11:00 +21°C° 0.1 mm 2 mps 745 mmHg 70%
12:00 +21°C° 0.4 mm 3 mps 745 mmHg 68%
13:00 +22°C° 0.4 mm 3 mps 744 mmHg 65%
14:00 +24°C° 0.4 mm 3 mps 744 mmHg 63%
15:00 +22°C° 0.1 mm 3 mps 743 mmHg 67%
16:00 +22°C° 0.1 mm 3 mps 743 mmHg 70%
17:00 +21°C° 0.1 mm 3 mps 742 mmHg 73%
18:00 +20°C° 0.1 mm 3 mps 742 mmHg 75%
19:00 +20°C° 0.1 mm 3 mps 742 mmHg 77%
20:00 +19°C° 0.1 mm 3 mps 741 mmHg 78%
21:00 +19°C° 0.6 mm 3 mps 741 mmHg 80%
22:00 +19°C° 0.6 mm 3 mps 741 mmHg 82%
23:00 +19°C° 0.6 mm 3 mps 741 mmHg 84%

6 August, Friday

Time Temperature Precipitation Wind Pressure Humidity
00:00 +18°C° 0.8 mm 3 mps 741 mmHg 85%
01:00 +18°C° 0.8 mm 4 mps 740 mmHg 87%
02:00 +18°C° 0.8 mm 4 mps 740 mmHg 88%
03:00 +18°C° 0.6 mm 4 mps 739 mmHg 90%
04:00 +17°C° 0.6 mm 4 mps 739 mmHg 93%
05:00 +17°C° 0.6 mm 4 mps 738 mmHg 95%
06:00 +17°C° 0.8 mm 5 mps 738 mmHg 93%
07:00 +17°C° 0.8 mm 5 mps 738 mmHg 91%
08:00 +19°C° 0.8 mm 6 mps 737 mmHg 90%
09:00 +20°C° 0.1 mm 6 mps 737 mmHg 86%
10:00 +22°C° 0.1 mm 6 mps 737 mmHg 83%
11:00 +23°C° 0.1 mm 6 mps 737 mmHg 80%
12:00 +23°C° 0.6 mm 6 mps 737 mmHg 80%
13:00 +23°C° 0.6 mm 5 mps 737 mmHg 80%
14:00 +25°C° 0.6 mm 5 mps 737 mmHg 80%
15:00 +23°C° 1.8 mm 5 mps 737 mmHg 81%
16:00 +23°C° 1.8 mm 4 mps 737 mmHg 82%
17:00 +22°C° 1.8 mm 4 mps 737 mmHg 83%
18:00 +21°C° 0.4 mm 3 mps 737 mmHg 86%
19:00 +20°C° 0.4 mm 2 mps 737 mmHg 89%
20:00 +19°C° 0.4 mm 2 mps 737 mmHg 91%
21:00 +20°C° 0 mm 1 mps 738 mmHg 92%
22:00 +19°C° 0 mm 1 mps 738 mmHg 92%
23:00 +19°C° 0 mm 1 mps 739 mmHg 93%
Show more